When you browse on this site, cookies collect data to enhance your experience and personalize the content and advertising you see.
Visit our Privacy Policy to learn more. By continuing to use the site, you agree to this use of cookies and data.
  • en Suisse
  • Liste des pays
  • À 7 jours
  • Température de l'eau
  • Carte satellitaire
  • Carte météo
  • Widgets météo
  • user-avatar
    Se connecter

    Météo par heure à Huckelhoven

    Ce jour, 22 Juillet, Lundi

    Heure Température Précipitation Vent Pression Humidité
    00:00 +17°C° 0 mm 2 m/s 763 mmHg 79%
    01:00 +17°C° 0 mm 2 m/s 763 mmHg 81%
    02:00 +16°C° 0 mm 2 m/s 763 mmHg 82%
    03:00 +16°C° 0 mm 2 m/s 763 mmHg 84%
    04:00 +17°C° 0 mm 2 m/s 763 mmHg 80%
    05:00 +18°C° 0 mm 2 m/s 763 mmHg 76%
    06:00 +19°C° 0 mm 2 m/s 763 mmHg 72%
    07:00 +20°C° 0 mm 3 m/s 763 mmHg 68%
    08:00 +22°C° 0 mm 3 m/s 763 mmHg 64%
    09:00 +24°C° 0 mm 3 m/s 763 mmHg 60%
    10:00 +25°C° 0 mm 3 m/s 763 mmHg 56%
    11:00 +26°C° 0 mm 3 m/s 763 mmHg 53%
    12:00 +27°C° 0 mm 3 m/s 763 mmHg 49%
    13:00 +28°C° 0 mm 3 m/s 763 mmHg 48%
    14:00 +28°C° 0 mm 3 m/s 763 mmHg 47%
    15:00 +29°C° 0 mm 2 m/s 763 mmHg 46%
    16:00 +28°C° 0 mm 2 m/s 762 mmHg 50%
    17:00 +28°C° 0 mm 1 m/s 762 mmHg 55%
    18:00 +28°C° 0 mm 1 m/s 762 mmHg 59%
    19:00 +26°C° 0 mm 1 m/s 762 mmHg 62%
    20:00 +24°C° 0 mm 1 m/s 763 mmHg 66%
    21:00 +22°C° 0 mm 1 m/s 763 mmHg 69%
    22:00 +22°C° 0 mm 1 m/s 763 mmHg 71%
    23:00 +21°C° 0 mm 1 m/s 763 mmHg 72%

    Demain, 23 Juillet, Mardi

    Heure Température Précipitation Vent Pression Humidité
    00:00 +21°C° 0 mm 1 m/s 763 mmHg 74%
    01:00 +20°C° 0 mm 1 m/s 763 mmHg 75%
    02:00 +20°C° 0 mm 1 m/s 762 mmHg 76%
    03:00 +20°C° 0 mm 1 m/s 762 mmHg 77%
    04:00 +21°C° 0 mm 1 m/s 762 mmHg 74%
    05:00 +22°C° 0 mm 1 m/s 762 mmHg 72%
    06:00 +23°C° 0 mm 1 m/s 762 mmHg 70%
    07:00 +24°C° 0 mm 2 m/s 762 mmHg 64%
    08:00 +26°C° 0 mm 2 m/s 762 mmHg 58%
    09:00 +28°C° 0 mm 3 m/s 762 mmHg 52%
    10:00 +29°C° 0 mm 3 m/s 761 mmHg 48%
    11:00 +30°C° 0 mm 3 m/s 761 mmHg 44%
    12:00 +33°C° 0 mm 3 m/s 760 mmHg 39%
    13:00 +33°C° 0 mm 3 m/s 760 mmHg 38%
    14:00 +34°C° 0 mm 2 m/s 760 mmHg 37%
    15:00 +34°C° 0 mm 2 m/s 759 mmHg 36%
    16:00 +32°C° 0 mm 2 m/s 759 mmHg 40%
    17:00 +32°C° 0 mm 2 m/s 759 mmHg 44%
    18:00 +31°C° 0 mm 1 m/s 758 mmHg 48%
    19:00 +29°C° 0 mm 1 m/s 758 mmHg 52%
    20:00 +27°C° 0 mm 2 m/s 759 mmHg 55%
    21:00 +25°C° 0 mm 2 m/s 759 mmHg 59%
    22:00 +24°C° 0 mm 2 m/s 759 mmHg 60%
    23:00 +24°C° 0 mm 2 m/s 758 mmHg 61%

    Après-demain, 24 Juillet, Mercredi

    Heure Température Précipitation Vent Pression Humidité
    00:00 +23°C° 0 mm 2 m/s 758 mmHg 62%
    01:00 +23°C° 0 mm 2 m/s 758 mmHg 64%
    02:00 +21°C° 0 mm 3 m/s 758 mmHg 66%
    03:00 +21°C° 0 mm 3 m/s 757 mmHg 68%
    04:00 +22°C° 0 mm 3 m/s 757 mmHg 68%
    05:00 +22°C° 0 mm 3 m/s 757 mmHg 68%
    06:00 +24°C° 0 mm 3 m/s 757 mmHg 68%
    07:00 +27°C° 0 mm 3 m/s 757 mmHg 62%
    08:00 +29°C° 0 mm 3 m/s 757 mmHg 56%
    09:00 +31°C° 0 mm 3 m/s 757 mmHg 50%
    10:00 +34°C° 0 mm 3 m/s 757 mmHg 45%
    11:00 +35°C° 0 mm 3 m/s 757 mmHg 40%
    12:00 +37°C° 0 mm 2 m/s 756 mmHg 34%
    13:00 +37°C° 0 mm 2 m/s 756 mmHg 33%
    14:00 +38°C° 0 mm 2 m/s 756 mmHg 32%
    15:00 +37°C° 0 mm 1 m/s 756 mmHg 30%
    16:00 +36°C° 0 mm 1 m/s 756 mmHg 35%
    17:00 +35°C° 0 mm 1 m/s 756 mmHg 40%
    18:00 +34°C° 0 mm 1 m/s 756 mmHg 45%
    19:00 +32°C° 0 mm 2 m/s 756 mmHg 46%
    20:00 +30°C° 0 mm 2 m/s 756 mmHg 48%
    21:00 +28°C° 0 mm 3 m/s 757 mmHg 50%
    22:00 +28°C° 0 mm 3 m/s 757 mmHg 52%
    23:00 +27°C° 0 mm 3 m/s 757 mmHg 53%

    25 Juillet, Jeudi

    Heure Température Précipitation Vent Pression Humidité
    00:00 +26°C° 0 mm 3 m/s 756 mmHg 55%
    01:00 +26°C° 0 mm 3 m/s 756 mmHg 56%
    02:00 +25°C° 0 mm 3 m/s 756 mmHg 57%
    03:00 +25°C° 0 mm 3 m/s 756 mmHg 57%
    04:00 +25°C° 0 mm 3 m/s 756 mmHg 60%
    05:00 +26°C° 0 mm 3 m/s 756 mmHg 62%
    06:00 +27°C° 0 mm 3 m/s 756 mmHg 65%
    07:00 +29°C° 0 mm 3 m/s 756 mmHg 59%
    08:00 +32°C° 0 mm 4 m/s 756 mmHg 53%
    09:00 +34°C° 0 mm 4 m/s 756 mmHg 48%
    10:00 +35°C° 0 mm 5 m/s 756 mmHg 43%
    11:00 +36°C° 0 mm 5 m/s 756 mmHg 39%
    12:00 +37°C° 0 mm 5 m/s 755 mmHg 34%
    13:00 +39°C° 0 mm 5 m/s 755 mmHg 33%
    14:00 +39°C° 0 mm 5 m/s 754 mmHg 32%
    15:00 +39°C° 0 mm 5 m/s 754 mmHg 31%
    16:00 +37°C° 0 mm 4 m/s 754 mmHg 36%
    17:00 +36°C° 0 mm 4 m/s 753 mmHg 40%
    18:00 +34°C° 0 mm 3 m/s 753 mmHg 45%
    19:00 +33°C° 0 mm 3 m/s 753 mmHg 47%
    20:00 +30°C° 0 mm 4 m/s 753 mmHg 49%
    21:00 +29°C° 0 mm 4 m/s 753 mmHg 50%
    22:00 +28°C° 0 mm 4 m/s 753 mmHg 52%
    23:00 +28°C° 0 mm 4 m/s 753 mmHg 53%

    26 Juillet, Vendredi

    Heure Température Précipitation Vent Pression Humidité
    00:00 +27°C° 0 mm 4 m/s 753 mmHg 55%
    01:00 +27°C° 0 mm 4 m/s 752 mmHg 57%
    02:00 +27°C° 0 mm 4 m/s 752 mmHg 59%
    03:00 +26°C° 0 mm 4 m/s 751 mmHg 61%
    04:00 +27°C° 0 mm 4 m/s 751 mmHg 63%
    05:00 +27°C° 0 mm 4 m/s 751 mmHg 64%
    06:00 +27°C° 0 mm 4 m/s 751 mmHg 66%
    07:00 +29°C° 0 mm 4 m/s 751 mmHg 61%
    08:00 +30°C° 0 mm 3 m/s 752 mmHg 57%
    09:00 +33°C° 0 mm 3 m/s 752 mmHg 52%
    10:00 +34°C° 0 mm 3 m/s 752 mmHg 50%
    11:00 +34°C° 0 mm 4 m/s 752 mmHg 48%
    12:00 +35°C° 0 mm 4 m/s 751 mmHg 46%
    13:00 +34°C° 0 mm 5 m/s 751 mmHg 47%
    14:00 +34°C° 0 mm 5 m/s 751 mmHg 48%
    15:00 +33°C° 0 mm 6 m/s 751 mmHg 49%
    16:00 +30°C° 0.2 mm 5 m/s 752 mmHg 54%
    17:00 +29°C° 0.2 mm 5 m/s 752 mmHg 58%
    18:00 +27°C° 0.2 mm 4 m/s 752 mmHg 62%
    19:00 +26°C° 0.2 mm 4 m/s 753 mmHg 66%
    20:00 +24°C° 0.2 mm 3 m/s 753 mmHg 70%
    21:00 +23°C° 0.2 mm 2 m/s 754 mmHg 73%
    22:00 +23°C° 0.4 mm 2 m/s 754 mmHg 76%
    23:00 +21°C° 0.4 mm 2 m/s 754 mmHg 79%

    27 Juillet, Samedi

    Heure Température Précipitation Vent Pression Humidité
    00:00 +21°C° 0.4 mm 2 m/s 754 mmHg 81%
    01:00 +22°C° 1.1 mm 1 m/s 754 mmHg 85%
    02:00 +21°C° 1.1 mm 1 m/s 754 mmHg 89%
    03:00 +21°C° 1.1 mm 1 m/s 754 mmHg 93%
    04:00 +21°C° 1.1 mm 1 m/s 755 mmHg 92%
    05:00 +20°C° 1.1 mm 2 m/s 755 mmHg 91%
    06:00 +20°C° 1.1 mm 2 m/s 755 mmHg 90%
    07:00 +20°C° 0.1 mm 3 m/s 755 mmHg 84%
    08:00 +21°C° 0.1 mm 3 m/s 755 mmHg 78%
    09:00 +21°C° 0.1 mm 4 m/s 756 mmHg 72%
    10:00 +22°C° 0 mm 4 m/s 756 mmHg 66%
    11:00 +23°C° 0 mm 4 m/s 756 mmHg 59%
    12:00 +26°C° 0 mm 4 m/s 756 mmHg 53%
    13:00 +25°C° 0 mm 3 m/s 756 mmHg 52%
    14:00 +25°C° 0 mm 3 m/s 756 mmHg 52%
    15:00 +25°C° 0 mm 2 m/s 756 mmHg 51%
    16:00 +25°C° 0 mm 2 m/s 756 mmHg 53%
    17:00 +24°C° 0 mm 3 m/s 756 mmHg 55%
    18:00 +24°C° 0 mm 3 m/s 756 mmHg 57%
    19:00 +21°C° 0 mm 2 m/s 757 mmHg 61%
    20:00 +20°C° 0 mm 2 m/s 757 mmHg 64%
    21:00 +19°C° 0 mm 1 m/s 757 mmHg 68%
    22:00 +18°C° 0 mm 1 m/s 758 mmHg 71%
    23:00 +18°C° 0 mm 1 m/s 758 mmHg 74%
    Voir plus